Regional Weather Roundup
Issued by NWS

Home | Current Version | Previous Version | Graphics & Text | Print | Product List | Glossary On
Versions: 1 2 3 4 5 6 7 8 9 10 11 12 13 14 15 16 17 18 19 20 21 22 23 24 25 26 27 28 29 30 31 32 33 34 35 36 37 38 39 40 41 42 43 44 45 46 47 48 49 50
290
ASUS43 KLMK 220110
RWRKY
KENTUCKY REGIONAL WEATHER ROUNDUP
NATIONAL WEATHER SERVICE LOUISVILLE KY
800 PM EST SAT JAN 21 2017

NOTE "FAIR" INDICATES FEW OR NO CLOUDS BELOW 12,000 FEET
WITH NO SIGNIFICANT WEATHER AND/OR OBSTRUCTIONS TO VISIBILITY.

KYZ001>023-026-027-061>063-070>075-220200-
WESTERN AND SOUTH CENTRAL KENTUCKY

CITY           SKY/WX    TMP DP  RH WIND       PRES   REMARKS
PADUCAH        CLOUDY    60  50  69 SE3       29.57R
HENDERSON      PTCLDY    57  48  72 CALM      29.58R
OWENSBORO      MOCLDY    60  50  69 SE3       29.61R
HOPKINSVILLE   PTCLDY    62  49  60 SE3       29.60R
BOWLING GREEN  CLOUDY    60  49  66 S6        29.63R
GLASGOW        PTCLDY    54  49  83 CALM      29.63R
$$

KYZ024-025-028>034-038-045-046-053-220200-
NORTH CENTRAL KENTUCKY

CITY           SKY/WX    TMP DP  RH WIND       PRES   REMARKS
LOUISVILLE/SDF CLOUDY    58  47  66 CALM      29.62R
LOUISVILLE/LOU PTCLDY    56  49  77 CALM      29.62S
FORT KNOX      MOCLDY    58  47  67 S5        29.61S
$$

KYZ035>037-039>044-047>052-055>060-089>105-220200-
NORTHEAST KENTUCKY

CITY           SKY/WX    TMP DP  RH WIND       PRES   REMARKS
LEXINGTON      CLOUDY    57  50  77 SE5       29.65S
COVINGTON      CLOUDY    56  52  86 S6        29.63R
FRANKFORT      PTCLDY    57  50  77 SE6       29.63F
$$

KYZ054-064>069-076>088-106>120-220200-
SOUTHEAST KENTUCKY

CITY           SKY/WX    TMP DP  RH WIND       PRES   REMARKS
JACKSON        CLOUDY    58  51  78 CALM      29.67F
LONDON         CLOUDY    53  49  86 CALM      29.67S
SOMERSET       PTCLDY    52  48  87 CALM      29.66F
MIDDLESBORO    MOCLDY    51  51  99 CALM      29.68S
MONTICELLO     PTCLDY    50  48  93 VRB5      29.67S
$$





USA.gov is the U.S. government's official web portal to all federal, state and local government web resources and services.